Temp
-8 -7 -7 -7 -7 -7 -7 -7 -7 -6 -7 -7 -6 -6 -5 -6 -6 -7 -6 -6 -6 -6 -6 -6 -6 -6 -5 -6 -6 -6 -6 -6 -6 -7 -7 -6 -6 -6 -6 -6 -7 -7 -7 -7
-8 -8 -8 -8 -8 -7 -7 -7 -7 -6 -6 -6 -6 -6 -6 -5 -5 -6 -6 -6 -6 -7 -6 -6 -7 -6 -6 -6 -6 -6 -6 -6 -6 -6 -6 -6 -6 -6 -6 -6 -7 -7 -7 -6
-8 -8 -8 -8 -8 -8 -8 -8 -8 -7 -6 -5 -5 -6 -7 -7 -6 -6 -6 -7 -7 -7 -7 -6 -7 -6 -6 -6 -6 -6 -6 -5 -6 -6 -6 -7 -7 -6 -6 -6 -6 -7 -7 -7
-8 -8 -8 -8 -8 -8 -8 -8 -8 -8 -6 -6 -6 -5 -6 -6 -6 -6 -5 -6 -7 -7 -7 -7 -7 -6 -7 -6 -7 -6 -7 -6 -6 -7 -7 -6 -6 -6 -6 -6 -6 -6 -6 -7
-8 -8 -8 -8 -8 -8 -9 -9 -8 -8 -7 -7 -6 -6 -6 -6 -6 -7 -6 -6 -6 -7 -7 -7 -7 -7 -6 -6 -7 -7 -7 -7 -6 -7 -6 -6 -6 -6 -6 -6 -6 -6 -6 -7
-9 -9 -8 -8 -8 -8 -9 -9 -9 -8 -7 -7 -7 -7 -7 -7 -7 -7 -6 -6 -6 -6 -7 -7 -6 -6 -6 -6 -6 -6 -6 -7 -6 -6 -6 -6 -6 -6 -6 -6 -6 -6 -6 -6
-9 -9 -8 -8 -8 -8 -8 -9 -9 -9 -8 -7 -8 -8 -8 -7 -7 -7 -7 -7 -7 -6 -6 -6 -7 -7 -6 -5 -6 -7 -6 -6 -6 -6 -6 -6 -6 -6 -5 -5 -6 -5 -5 -6
-9 -9 -9 -9 -9 -9 -8 -9 -9 -8 -8 -8 -9 -8 -8 -8 -7 -7 -7 -7 -7 -6 -6 -5 -7 -7 -6 -6 -5 -5 -6 -6 -7 -6 -6 -6 -6 -6 -6 -6 -6 -5 -5 -5
-10 -10 -9 -9 -9 -9 -10 -9 -9 -9 -9 -9 -9 -9 -8 -8 -8 -8 -8 -7 -7 -7 -7 -6 -6 -6 -7 -6 -5 -5 -5 -6 -7 -7 -6 -5 -6 -6 -6 -6 -6 -6 -6 -5
-12 -11 -11 -10 -10 -10 -10 -10 -9 -9 -9 -9 -9 -8 -8 -8 -8 -8 -9 -8 -8 -8 -7 -8 -7 -6 -6 -7 -6 -5 -5 -5 -6 -6 -6 -5 -5 -5 -6 -6 -6 -6 -6 -5
-13 -13 -12 -12 -11 -11 -10 -10 -10 -10 -10 -10 -9 -8 -8 -8 -8 -7 -8 -8 -8 -8 -7 -8 -8 -7 -7 -7 -7 -6 -6 -6 -5 -6 -6 -5 -5 -5 -5 -6 -6 -6 -6 -6
-14 -14 -13 -12 -12 -12 -11 -11 -11 -11 -10 -9 -9 -9 -8 -8 -8 -7 -7 -7 -8 -8 -8 -8 -8 -8 -7 -6 -6 -7 -6 -6 -6 -6 -6 -6 -6 -6 -5 -5 -6 -6 -6 -6
-15 -14 -13 -13 -12 -12 -12 -11 -11 -11 -11 -10 -9 -9 -8 -8 -8 -8 -7 -7 -7 -7 -7 -7 -8 -8 -8 -8 -7 -7 -7 -7 -6 -6 -6 -6 -6 -6 -6 -6 -6 -6 -6 -5
-15 -14 -13 -13 -12 -12 -12 -12 -12 -12 -12 -10 -10 -9 -8 -8 -8 -9 -9 -7 -6 -7 -7 -7 -7 -8 -8 -8 -8 -6 -6 -7 -7 -6 -6 -6 -6 -6 -6 -6 -6 -5 -6 -6
-14 -13 -13 -13 -13 -13 -13 -12 -12 -12 -12 -12 -11 -11 -10 -9 -9 -9 -9 -9 -8 -7 -7 -7 -7 -7 -8 -8 -8 -7 -6 -6 -7 -7 -7 -7 -6 -6 -5 -5 -5 -5 -5 -6
-15 -14 -14 -14 -13 -14 -14 -13 -13 -13 -13 -12 -12 -12 -11 -11 -10 -10 -9 -9 -9 -8 -7 -7 -7 -7 -8 -8 -8 -7 -7 -6 -6 -7 -7 -7 -7 -6 -6 -6 -6 -5 -5 -5
-15 -15 -15 -14 -14 -14 -14 -14 -13 -13 -13 -13 -13 -13 -13 -12 -12 -11 -11 -10 -10 -10 -9 -8 -9 -8 -8 -8 -8 -7 -7 -6 -7 -7 -7 -7 -7 -6 -6 -6 -6 -5 -5 -5
-15 -14 -14 -14 -14 -14 -13 -14 -14 -14 -14 -14 -14 -14 -14 -13 -12 -12 -12 -11 -11 -10 -10 -9 -9 -9 -8 -8 -8 -8 -7 -7 -7 -7 -8 -7 -7 -7 -7 -6 -6 -6 -5 -5
-15 -15 -14 -15 -15 -14 -14 -14 -14 -14 -14 -14 -14 -14 -14 -15 -14 -13 -12 -11 -11 -11 -11 -10 -10 -9 -9 -9 -8 -8 -8 -8 -9 -9 -8 -8 -7 -7 -7 -7 -6 -6 -6 -5
-16 -15 -15 -15 -15 -15 -15 -15 -15 -15 -15 -15 -14 -15 -15 -15 -14 -14 -13 -12 -11 -11 -12 -11 -10 -11 -9 -9 -9 -8 -8 -9 -9 -9 -8 -8 -7 -7 -7 -7 -7 -7 -6 -5
-16 -16 -16 -16 -16 -16 -16 -16 -15 -15 -15 -15 -15 -15 -15 -15 -14 -14 -14 -14 -13 -11 -12 -12 -11 -11 -10 -10 -9 -9 -8 -9 -9 -9 -8 -7 -7 -7 -7 -7 -7 -7 -7 -6
-17 -17 -16 -16 -16 -16 -16 -16 -15 -15 -15 -15 -15 -16 -16 -16 -15 -16 -16 -15 -14 -13 -12 -12 -12 -11 -11 -10 -10 -9 -9 -9 -9 -8 -8 -8 -8 -8 -8 -7 -8 -8 -8 -7
-17 -17 -17 -17 -17 -16 -16 -16 -17 -17 -17 -16 -16 -16 -17 -17 -18 -18 -19 -18 -16 -15 -14 -13 -13 -12 -11 -11 -10 -10 -9 -8 -9 -9 -9 -9 -8 -8 -8 -8 -8 -8 -7 -7
-18 -17 -17 -17 -16 -16 -17 -17 -17 -17 -18 -17 -17 -17 -17 -17 -18 -19 -19 -20 -20 -19 -17 -14 -13 -13 -12 -11 -11 -11 -10 -10 -9 -9 -9 -9 -8 -8 -8 -8 -9 -8 -8 -8
-17 -17 -17 -17 -17 -17 -17 -18 -18 -17 -17 -18 -18 -18 -18 -17 -18 -19 -20 -20 -20 -20 -19 -17 -14 -13 -13 -12 -12 -11 -11 -10 -10 -9 -9 -9 -9 -8 -7 -8 -8 -9 -8 -8
-18 -17 -18 -18 -18 -18 -18 -18 -18 -18 -18 -18 -18 -19 -18 -18 -18 -19 -19 -20 -20 -20 -20 -19 -17 -15 -14 -13 -12 -12 -11 -11 -10 -10 -10 -10 -8 -8 -8 -8 -8 -8 -8 -9
Height
5828 5834 5840 5843 5847 5851 5856 5859 5862 5867 5868 5873 5879 5883 5884 5887 5890 5892 5895 5897 5898 5900 5901 5902 5906 5910 5914 5916 5918 5920 5921 5924 5925 5927 5930 5931 5933 5934 5935 5936 5937 5937 5938 5937
5824 5830 5832 5836 5840 5845 5850 5853 5857 5859 5862 5869 5877 5880 5884 5887 5891 5891 5893 5894 5895 5898 5900 5901 5903 5908 5912 5914 5917 5920 5922 5924 5926 5929 5931 5933 5934 5936 5936 5938 5940 5939 5939 5939
5819 5825 5827 5832 5836 5841 5845 5851 5853 5855 5857 5864 5870 5877 5881 5885 5888 5889 5891 5893 5895 5895 5898 5900 5901 5905 5908 5912 5916 5919 5920 5923 5926 5929 5932 5934 5934 5936 5937 5940 5941 5941 5941 5941
5812 5817 5822 5826 5832 5836 5841 5846 5850 5852 5854 5859 5865 5872 5877 5881 5886 5889 5889 5891 5893 5894 5896 5898 5900 5903 5906 5909 5913 5917 5921 5922 5926 5928 5931 5935 5935 5936 5939 5941 5941 5941 5943 5944
5806 5811 5817 5822 5829 5833 5837 5839 5843 5847 5851 5854 5861 5868 5873 5879 5883 5887 5887 5888 5889 5892 5896 5896 5897 5899 5901 5907 5912 5915 5919 5923 5925 5927 5930 5934 5937 5937 5939 5941 5942 5942 5943 5945
5797 5804 5811 5816 5821 5827 5831 5835 5838 5843 5848 5852 5858 5866 5871 5875 5877 5880 5884 5886 5886 5888 5892 5894 5897 5897 5900 5904 5910 5916 5919 5922 5925 5927 5929 5932 5936 5938 5939 5940 5942 5942 5942 5943
5791 5798 5804 5810 5815 5821 5826 5830 5834 5838 5842 5848 5853 5861 5867 5869 5873 5876 5880 5879 5881 5883 5886 5890 5894 5899 5901 5903 5906 5912 5916 5921 5923 5925 5928 5930 5934 5937 5939 5939 5941 5943 5943 5944
5785 5792 5797 5802 5808 5815 5819 5825 5829 5832 5836 5842 5848 5855 5861 5864 5868 5871 5874 5878 5882 5883 5883 5885 5889 5894 5898 5900 5903 5906 5910 5916 5920 5923 5926 5928 5931 5935 5938 5939 5940 5943 5944 5944
5779 5783 5789 5795 5800 5806 5810 5817 5824 5828 5832 5837 5842 5849 5855 5858 5862 5866 5868 5871 5875 5878 5883 5885 5885 5888 5892 5896 5899 5902 5906 5911 5916 5918 5922 5926 5930 5932 5935 5937 5939 5942 5944 5945
5773 5777 5780 5786 5793 5797 5803 5810 5816 5820 5824 5829 5835 5841 5842 5851 5856 5858 5861 5866 5870 5873 5878 5882 5885 5887 5889 5892 5894 5897 5901 5907 5912 5914 5918 5922 5926 5929 5931 5935 5938 5941 5943 5945
5769 5771 5776 5780 5785 5790 5796 5800 5807 5813 5818 5821 5829 5832 5838 5846 5850 5853 5857 5861 5865 5870 5874 5878 5881 5883 5886 5887 5891 5894 5897 5903 5907 5912 5914 5918 5921 5924 5929 5932 5935 5938 5941 5943
5763 5765 5769 5773 5779 5783 5787 5792 5798 5802 5810 5816 5821 5826 5829 5836 5843 5849 5852 5855 5860 5865 5869 5875 5877 5879 5880 5885 5888 5892 5893 5896 5902 5905 5909 5913 5917 5920 5924 5928 5931 5934 5937 5940
5756 5759 5763 5767 5773 5776 5779 5784 5789 5794 5800 5807 5813 5817 5823 5828 5835 5840 5847 5851 5853 5857 5862 5868 5873 5875 5877 5880 5884 5886 5889 5891 5895 5898 5903 5907 5911 5915 5918 5923 5927 5930 5933 5935
5752 5755 5759 5762 5765 5769 5772 5776 5781 5787 5792 5798 5804 5807 5813 5818 5823 5831 5836 5845 5849 5852 5855 5859 5864 5869 5872 5875 5877 5881 5885 5889 5890 5894 5896 5901 5905 5908 5911 5914 5920 5924 5928 5931
5747 5750 5753 5755 5757 5761 5764 5769 5774 5779 5784 5790 5796 5797 5801 5808 5812 5818 5825 5832 5838 5842 5847 5851 5854 5860 5864 5867 5870 5875 5879 5882 5885 5889 5891 5896 5898 5900 5903 5909 5911 5916 5921 5926
5740 5744 5748 5750 5752 5754 5756 5760 5766 5771 5775 5779 5785 5788 5790 5795 5800 5806 5812 5820 5825 5830 5835 5840 5844 5849 5855 5859 5863 5866 5871 5873 5877 5882 5886 5889 5891 5894 5897 5901 5905 5908 5914 5918
5736 5738 5741 5743 5745 5746 5750 5754 5758 5762 5766 5771 5774 5779 5778 5782 5789 5795 5800 5806 5813 5817 5824 5828 5834 5840 5844 5850 5855 5859 5862 5866 5870 5874 5877 5881 5884 5888 5891 5894 5897 5902 5907 5911
5728 5731 5734 5736 5737 5739 5743 5747 5750 5753 5756 5760 5764 5767 5768 5769 5775 5780 5786 5791 5799 5805 5810 5816 5822 5828 5834 5840 5844 5850 5854 5859 5863 5865 5870 5873 5876 5880 5882 5886 5891 5895 5898 5903
5719 5721 5723 5726 5729 5731 5733 5736 5740 5742 5747 5750 5753 5756 5758 5759 5759 5761 5770 5777 5783 5791 5797 5802 5808 5815 5822 5829 5832 5838 5843 5849 5852 5856 5860 5864 5867 5872 5876 5879 5884 5886 5890 5895
5713 5714 5715 5717 5720 5722 5724 5725 5728 5732 5737 5739 5739 5740 5743 5743 5742 5745 5751 5758 5766 5775 5782 5788 5793 5801 5809 5814 5820 5825 5829 5835 5839 5844 5850 5854 5857 5863 5869 5872 5876 5876 5881 5887
5706 5707 5708 5708 5710 5713 5715 5717 5718 5722 5727 5721 5722 5722 5723 5725 5722 5725 5727 5737 5747 5755 5765 5771 5779 5786 5794 5800 5806 5812 5816 5821 5826 5832 5840 5844 5847 5852 5859 5863 5866 5870 5872 5877
5699 5699 5700 5701 5702 5705 5704 5704 5707 5707 5704 5705 5706 5705 5704 5703 5702 5701 5704 5711 5722 5735 5744 5752 5761 5770 5778 5784 5791 5799 5804 5809 5816 5822 5824 5827 5834 5840 5848 5853 5858 5862 5862 5868
5697 5696 5696 5697 5696 5695 5694 5695 5695 5693 5691 5689 5690 5689 5686 5685 5684 5682 5684 5688 5696 5709 5724 5731 5742 5751 5761 5768 5774 5782 5790 5796 5802 5809 5815 5815 5819 5825 5835 5840 5846 5853 5854 5858
5692 5691 5691 5690 5690 5690 5691 5690 5689 5686 5683 5680 5677 5674 5671 5668 5668 5667 5668 5672 5676 5684 5697 5711 5721 5734 5743 5751 5758 5765 5773 5780 5786 5794 5801 5805 5807 5812 5821 5828 5833 5841 5845 5851
5690 5688 5687 5687 5686 5686 5685 5684 5682 5679 5676 5672 5667 5662 5656 5652 5652 5652 5653 5657 5662 5669 5676 5687 5701 5714 5725 5733 5740 5749 5755 5763 5772 5777 5785 5791 5795 5803 5808 5814 5821 5828 5835 5841
5686 5685 5684 5683 5682 5680 5679 5677 5673 5670 5667 5663 5658 5652 5645 5640 5639 5638 5639 5641 5647 5651 5657 5667 5681 5694 5706 5713 5724 5730 5739 5746 5754 5762 5769 5775 5779 5788 5793 5801 5807 5815 5822 5828
Wind_Speed
25 26 23 23 25 27 24 27 28 25 26 23 17 18 21 19 21 19 19 15 13 11 14 14 14 15 15 16 16 17 17 14 13 15 12 12 13 12 13 14 12 14 15 15
26 24 27 29 27 26 28 30 29 29 29 26 21 20 21 20 18 18 14 15 21 16 13 14 15 15 15 19 18 19 19 16 13 12 12 13 13 13 12 13 12 14 15 17
26 25 27 26 28 28 27 29 29 31 29 24 20 19 19 20 16 16 15 18 22 19 18 16 18 18 16 15 16 19 19 16 14 12 12 14 15 13 13 11 14 14 14 17
30 29 29 28 28 28 27 27 30 30 29 27 23 21 20 17 15 16 16 20 19 17 17 19 19 18 18 17 16 17 18 19 16 15 14 15 16 15 13 11 12 14 14 15
33 32 31 28 26 25 27 31 32 33 32 30 27 21 19 16 15 16 17 20 19 16 18 22 24 24 21 17 18 21 22 20 20 19 18 16 14 15 14 11 11 14 15 12
35 35 34 34 32 30 29 29 31 31 31 30 27 22 19 18 20 19 20 18 21 16 17 17 22 25 21 18 16 20 21 24 24 23 20 19 17 17 17 15 13 14 14 13
36 36 36 36 36 34 32 31 32 33 31 29 29 23 21 22 22 20 20 24 25 22 21 19 16 20 17 15 16 17 22 21 24 25 23 21 20 19 17 15 13 12 13 13
38 37 37 37 37 35 35 34 34 33 32 30 30 28 25 24 23 21 20 20 22 21 22 25 22 21 19 18 17 19 21 25 24 25 25 22 21 20 18 17 14 12 11 11
35 38 38 37 38 38 37 36 36 37 39 38 35 33 28 30 27 25 24 23 21 19 21 26 27 25 23 20 19 17 16 25 28 27 28 25 22 22 20 18 16 14 12 11
31 32 36 38 39 39 39 39 39 39 40 41 38 35 37 32 33 31 30 28 25 23 21 19 27 28 28 25 24 21 16 18 28 30 30 29 26 24 23 20 19 18 15 14
25 28 32 34 36 38 38 40 41 41 42 43 40 40 39 36 35 35 35 33 31 29 27 22 27 32 31 30 25 22 19 16 18 27 29 29 29 28 25 23 21 20 19 16
22 25 28 33 33 34 35 36 37 40 42 43 43 43 42 40 39 38 37 36 35 33 30 28 30 32 34 33 30 24 23 20 21 23 28 30 31 31 29 26 25 23 21 20
26 28 29 31 34 35 36 37 36 38 39 41 42 45 44 45 42 41 38 37 36 33 32 32 32 35 33 34 35 33 29 27 26 25 25 30 32 31 31 31 29 27 26 24
27 29 31 34 36 37 37 36 37 36 37 39 41 43 45 44 44 42 44 41 38 36 35 32 32 37 35 33 39 41 35 30 30 28 27 27 31 34 33 34 35 33 31 29
28 29 30 33 35 35 37 38 38 38 38 38 38 42 45 46 46 44 40 40 42 44 41 39 34 33 41 38 38 39 40 37 36 33 32 30 30 33 37 36 37 37 35 33
20 20 21 25 28 31 34 36 37 37 38 39 39 42 45 45 46 44 44 41 43 44 46 44 41 37 42 43 43 42 41 43 42 39 35 34 35 33 34 38 38 38 37 37
21 21 19 20 23 28 30 30 32 34 36 39 41 42 45 47 47 48 47 45 44 49 48 48 45 42 42 45 43 43 45 46 44 44 44 39 38 34 33 35 40 38 38 39
26 28 28 26 25 26 26 27 29 33 36 37 38 40 45 51 52 52 50 50 46 49 54 53 51 49 46 49 48 46 42 42 46 46 47 46 43 38 35 37 36 39 41 41
26 28 32 35 33 32 31 32 33 34 36 37 36 41 45 50 56 58 58 56 54 49 54 59 59 54 52 52 53 52 52 49 51 49 49 53 48 44 40 38 38 38 42 43
22 22 24 27 30 31 31 29 28 27 29 34 40 46 49 47 62 67 66 64 62 57 52 58 63 60 58 59 59 56 54 54 59 50 49 52 53 48 46 41 38 38 40 44
16 19 22 26 27 26 26 26 28 34 37 42 44 47 49 48 53 68 76 73 68 67 59 58 64 65 60 62 65 63 59 57 57 46 46 51 54 56 50 48 43 41 39 42
12 12 13 15 17 20 23 27 33 37 38 39 40 44 47 48 49 60 70 79 78 73 66 66 64 70 66 64 67 69 63 60 58 55 40 51 61 62 57 52 49 43 40 42
6 8 9 10 10 12 16 20 25 32 38 40 39 42 44 47 46 51 55 67 77 80 76 65 68 70 72 67 67 68 63 62 65 57 60 46 56 68 61 58 53 45 42 40
7 5 4 4 3 7 11 15 18 23 27 33 37 41 41 45 44 49 53 48 55 76 79 81 71 69 75 74 73 69 62 60 64 60 53 49 52 59 65 58 50 49 46 39
12 10 10 11 13 16 16 18 17 20 23 24 25 32 37 38 41 42 52 53 50 50 73 81 82 71 74 80 76 75 74 68 58 59 57 57 55 59 61 58 58 56 50 45
17 20 20 20 21 23 21 22 21 22 22 24 26 28 33 35 35 37 45 51 51 51 62 68 79 82 75 81 80 79 76 74 68 70 64 66 62 61 58 63 66 63 56 50
Wind_Direction
218 218 219 214 210 210 207 213 220 215 223 223 217 211 201 184 192 188 199 197 218 210 185 177 182 184 182 172 169 168 162 167 163 156 160 154 141 126 115 115 116 108 101 95
221 216 215 213 211 208 204 205 211 219 219 224 208 214 217 216 215 189 200 184 182 184 194 184 183 179 184 176 176 174 172 174 173 165 162 157 145 136 128 124 124 111 107 100
223 217 218 214 213 213 210 207 209 220 225 220 219 207 208 216 211 199 201 169 161 172 194 195 179 183 183 179 184 178 181 176 176 165 164 166 155 150 143 149 134 119 108 101
222 218 215 214 213 214 212 208 210 218 228 227 223 213 210 219 213 203 213 176 156 165 180 188 185 189 186 191 193 191 185 187 182 173 177 191 170 159 156 157 143 126 117 108
223 221 219 219 215 212 207 211 210 212 221 227 225 224 218 214 220 212 215 198 176 161 178 186 188 190 191 186 201 196 189 198 187 189 193 193 190 167 162 165 161 143 131 120
221 220 219 218 218 212 212 214 222 222 220 226 229 221 226 218 215 208 211 216 186 177 179 186 196 195 190 187 201 205 194 194 196 196 202 189 191 188 175 174 179 161 148 138
222 221 219 219 220 218 217 212 215 223 226 227 228 222 220 222 224 222 214 205 192 190 191 186 195 201 191 184 194 202 198 198 202 202 205 200 190 198 193 181 185 181 164 150
222 222 221 219 221 222 220 218 218 222 229 230 227 230 217 223 221 219 218 215 220 217 204 196 188 195 186 188 198 201 193 199 203 205 212 209 199 199 199 192 189 197 184 171
217 221 223 221 221 219 218 219 219 221 223 222 227 226 225 218 220 222 223 214 214 214 204 208 201 196 190 195 194 195 203 203 201 204 210 215 210 205 202 204 197 200 208 191
213 216 219 221 221 224 218 220 217 219 222 226 226 227 228 221 215 221 225 221 215 218 208 214 211 209 204 198 198 195 194 210 208 206 207 213 215 215 208 207 206 202 213 211
215 217 221 221 220 224 224 223 222 223 224 225 228 231 233 226 224 222 226 227 220 218 216 206 207 210 208 205 201 200 193 211 219 219 214 216 215 218 215 210 214 212 212 218
208 215 218 223 224 225 227 227 229 230 227 229 229 232 234 233 230 229 228 228 229 225 221 210 207 205 213 215 211 208 204 201 219 219 219 217 218 219 220 218 216 217 219 221
205 215 219 224 226 227 229 230 228 230 232 231 233 235 235 237 233 234 231 233 232 231 227 218 214 216 218 225 223 220 213 204 214 219 222 220 220 220 219 221 223 220 222 223
209 213 221 227 230 232 232 234 235 234 234 237 236 240 239 239 238 235 237 231 236 235 233 231 221 216 216 225 228 223 216 217 217 218 226 226 224 221 221 219 223 224 224 226
224 223 224 229 233 235 237 238 240 241 242 240 240 242 243 240 241 239 233 232 230 233 232 231 227 221 216 214 224 221 224 223 224 223 221 229 229 225 224 226 222 224 225 226
223 226 220 220 227 232 235 239 240 241 243 246 245 244 245 245 243 241 239 230 226 228 232 232 230 224 222 223 223 227 222 224 224 226 225 228 234 230 226 225 229 226 225 226
230 232 229 222 226 229 232 235 240 242 242 243 245 248 250 248 247 245 243 237 227 224 227 232 231 226 222 225 227 231 231 227 226 228 227 226 233 232 231 228 228 232 230 230
244 240 239 242 242 245 240 237 242 245 246 248 249 249 251 254 251 246 242 241 234 224 222 225 228 227 226 223 227 229 235 234 229 231 231 228 227 228 230 233 232 231 232 231
257 253 246 243 245 247 249 252 251 252 252 250 250 253 254 256 256 251 246 240 237 230 224 220 225 227 226 227 229 228 235 233 230 228 231 230 224 226 229 234 234 234 233 234
258 254 249 241 238 242 246 248 251 251 255 255 255 256 258 263 250 252 251 245 239 232 228 225 221 226 226 227 233 232 231 235 240 227 230 230 229 226 227 229 234 236 236 237
250 250 251 251 248 241 245 254 262 273 271 269 268 264 263 265 259 243 245 246 242 237 229 226 223 220 225 227 231 231 233 234 234 219 235 235 237 232 226 227 231 237 239 238
247 244 241 242 251 260 268 275 273 275 272 273 275 269 265 266 272 249 238 238 239 237 233 227 223 220 220 227 230 233 233 232 234 231 239 238 229 230 227 229 230 232 235 242
260 253 249 261 268 287 297 290 281 273 271 273 275 272 267 262 269 259 245 237 233 234 228 226 221 222 219 224 228 232 231 233 231 236 238 239 232 230 225 228 224 232 234 240
276 280 284 296 315 307 305 304 309 298 297 285 277 276 275 263 263 255 248 252 243 232 229 226 224 220 221 219 227 228 227 231 231 235 231 237 223 217 221 227 222 231 233 236
272 266 273 278 285 283 288 289 296 304 314 312 309 297 288 268 259 262 248 248 244 245 232 230 226 219 220 220 222 226 231 232 237 235 232 232 237 227 222 224 226 227 228 230
276 272 273 277 281 281 285 290 299 306 314 319 324 321 298 278 261 262 250 246 244 251 240 227 228 227 222 221 221 223 227 229 229 230 235 236 223 233 232 233 221 226 228 226